"Pseudo-MPEC" for C16DCU5

Created 2025 Oct 20 6:35:04 UT using Find_Orb

Click here for an explanation of pseudo-MPECs

 
 Astrometry: 
     C16DCU5* C2025 10 15.25528901 22 06.658+07 47 51.94   ~AF75 22.16GVNEOCPV00
     C16DCU5  C2025 10 15.26087901 22 04.778+07 48 22.03   ~AF75       VNEOCPV00
     C16DCU5  C2025 10 15.26646901 22 02.957+07 48 51.08   ~AF75 22.84GVNEOCPV00
     C16DCU5  C2025 10 15.27205001 22 01.074+07 49 19.85   ~AF75 22.30GVNEOCPV00

Station data:
(V00) Kitt Peak-Bok  (N31.963125 W111.600190)  US/Arizona. Measurers T.
   Beuden, V. F. Carvajal, D. Fay, J. B. Fazekas, D. C. Fuls, A. R. Gibbs, A.
   D. Grauer, H. Gröller, J. K. Hogan, R. A. Kowalski, S. M. Larson, G. J.
   Leonard, D. Rankin, R. L. Seaman, F. C. Shelly, K. W. Wierzchoś. 2.25-m
   reflector + 4x4K mosaic CCD.

Orbital elements:  C16DCU5
   Perihelion 2025 Dec 30.319015 +/- 57.4 TT =  7:39:22.9 (JD 2461039.819015)
Epoch 2025 Oct 15.0 TT = JDT 2460963.5   Earth MOID: 0.1477      AutoNEOCP
M 315.399686063 +/- 31              (J2000 ecliptic)
n   0.584393205 +/- 0.356           Peri.   79.674006 +/- 70
a   1.416878500 +/- 0.575           Node    22.113782 +/- 17
e   0.33492542 +/- 0.279            Incl.   22.421242 +/- 16
P   1.687/616.012d         H 25.81  G  0.15   U 12.1  SR
q 0.942329862 +/- 0.27    Q 1.891427139 +/- 27
From 4 observations 2025 Oct. 15 (24.1 min); mean residual 0".28
Residuals in arcseconds: 
251015 V00  .08+  .36-    251015 V00  .29+  .20+    
251015 V00  .26-  .44+    251015 V00  .10-  .28-    

Ephemerides (geocentric):
Date (UTC) HH   RA             Dec           delta  r     elong  mag " sig PA
---- --------  ------------   ------------  ------ ------ -----  --- --------
2025 10 20 07  00 51 29.251   +15 56 42.24  .17146 1.1635 167.1 23.0  40d  95
2025 10 20 08  00 51 11.944   +16 01 06.54  .17133 1.1633 166.9 23.0  40d  95
2025 10 20 09  00 50 54.603   +16 05 31.14  .17120 1.1631 166.8 23.0  40d  95
2025 10 20 10  00 50 37.226   +16 09 56.01  .17107 1.1629 166.7 23.0  40d  95
2025 10 20 11  00 50 19.813   +16 14 21.18  .17095 1.1627 166.6 23.0  40d  95
2025 10 20 12  00 50 02.366   +16 18 46.62  .17082 1.1625 166.4 23.0  40d  95
2025 10 20 13  00 49 44.882   +16 23 12.34  .17070 1.1623 166.3 23.0  41d  95
2025 10 20 14  00 49 27.364   +16 27 38.34  .17057 1.1621 166.2 23.0  41d  95
2025 10 20 15  00 49 09.809   +16 32 04.61  .17045 1.1619 166.1 23.0  41d  95
2025 10 20 16  00 48 52.220   +16 36 31.15  .17032 1.1617 166.0 23.0  41d  95
2025 10 20 17  00 48 34.595   +16 40 57.96  .17020 1.1615 165.8 23.0  41d  95
2025 10 20 18  00 48 16.934   +16 45 25.04  .17008 1.1613 165.7 23.0  41d  95
2025 10 20 19  00 47 59.238   +16 49 52.39  .16996 1.1611 165.6 23.0  41d  95
2025 10 20 20  00 47 41.507   +16 54 19.99  .16984 1.1608 165.5 23.0  41d  96
2025 10 20 21  00 47 23.740   +16 58 47.86  .16972 1.1606 165.3 23.0  41d  96
2025 10 20 22  00 47 05.937   +17 03 15.98  .16960 1.1604 165.2 23.0  41d  96
2025 10 20 23  00 46 48.100   +17 07 44.35  .16948 1.1602 165.1 23.0  41d  96
2025 10 21 00  00 46 30.226   +17 12 12.98  .16936 1.1600 165.0 23.0  41d  96
2025 10 21 01  00 46 12.318   +17 16 41.86  .16924 1.1598 164.9 23.0  41d  96
2025 10 21 02  00 45 54.373   +17 21 10.99  .16913 1.1596 164.7 23.0  41d  96
2025 10 21 03  00 45 36.394   +17 25 40.36  .16901 1.1594 164.6 23.0  41d  96
2025 10 21 04  00 45 18.379   +17 30 09.97  .16890 1.1592 164.5 23.0  41d  96
2025 10 21 05  00 45 00.328   +17 34 39.82  .16878 1.1590 164.4 23.0  41d  96
2025 10 21 06  00 44 42.242   +17 39 09.91  .16867 1.1588 164.2 23.0  41d  96
2025 10 21 07  00 44 24.121   +17 43 40.24  .16855 1.1586 164.1 23.0  41d  96
2025 10 21 08  00 44 05.964   +17 48 10.79  .16844 1.1584 164.0 23.0  41d  96
2025 10 21 09  00 43 47.772   +17 52 41.58  .16833 1.1582 163.9 23.1  41d  96
2025 10 21 10  00 43 29.544   +17 57 12.59  .16822 1.1579 163.7 23.1  41d  96
2025 10 21 11  00 43 11.281   +18 01 43.82  .16811 1.1577 163.6 23.1  41d  96
2025 10 21 12  00 42 52.983   +18 06 15.28  .16800 1.1575 163.5 23.1  41d  96
2025 10 21 13  00 42 34.649   +18 10 46.95  .16789 1.1573 163.4 23.1  41d  96
2025 10 21 14  00 42 16.280   +18 15 18.84  .16778 1.1571 163.2 23.1  41d  96
2025 10 21 15  00 41 57.875   +18 19 50.95  .16767 1.1569 163.1 23.1  41d  96
2025 10 21 16  00 41 39.435   +18 24 23.26  .16756 1.1567 163.0 23.1  41d  96
2025 10 21 17  00 41 20.960   +18 28 55.78  .16746 1.1565 162.9 23.1  41d  96
2025 10 21 18  00 41 02.450   +18 33 28.51  .16735 1.1563 162.7 23.1  41d  96
2025 10 21 19  00 40 43.904   +18 38 01.43  .16725 1.1561 162.6 23.1  41d  96
2025 10 21 20  00 40 25.322   +18 42 34.56  .16714 1.1559 162.5 23.1  41d  96
2025 10 21 21  00 40 06.706   +18 47 07.89  .16704 1.1557 162.4 23.1  41d  96
2025 10 21 22  00 39 48.054   +18 51 41.40  .16694 1.1555 162.2 23.1  42d  96
2025 10 21 23  00 39 29.367   +18 56 15.11  .16683 1.1553 162.1 23.1  42d  96
2025 10 22 00  00 39 10.645   +19 00 49.01  .16673 1.1551 162.0 23.1  42d  96
2025 10 22 01  00 38 51.887   +19 05 23.09  .16663 1.1549 161.9 23.1  42d  96
2025 10 22 02  00 38 33.094   +19 09 57.35  .16653 1.1546 161.7 23.1  42d  96
2025 10 22 03  00 38 14.266   +19 14 31.79  .16643 1.1544 161.6 23.1  42d  96
2025 10 22 04  00 37 55.403   +19 19 06.41  .16633 1.1542 161.5 23.1  42d  96
2025 10 22 05  00 37 36.505   +19 23 41.20  .16624 1.1540 161.4 23.1  42d  96
2025 10 22 06  00 37 17.571   +19 28 16.17  .16614 1.1538 161.2 23.1  42d  96